Weather History for KCTB - March, 2014

Change the Weather History Date:

Friday, March 21, 2014

  Actual Average Record
Temperature  
Mean Temperature 12 °F 33 °F  
Max Temperature 18 °F 44 °F 71 °F (1910)
Min Temperature 5 °F 22 °F -27 °F (2002)
Degree Days  
Heating Degree Days 53 32  
Month to date heating degree days 775 740  
Since 1 July heating degree days 6981 6800  
Cooling Degree Days 0 0  
Month to date cooling degree days 0 0  
Year to date cooling degree days 0 0  
Moisture  
Dew Point 6 °F    
Average Humidity 75    
Maximum Humidity 88    
Minimum Humidity 61    
Precipitation  
Precipitation T in 0.02 in 0.40 in (1934)
Month to date precipitation 0.30 0.31  
Year to date precipitation 1.63 0.72  
Snow  
Snow 0.00 in - - ()
Snow Depth T in    
Sea Level Pressure  
Sea Level Pressure 30.48 in    
Wind  
Wind Speed 10 mph (NNE)    
Max Wind Speed 23 mph    
Max Gust Speed 28 mph    
Visibility 8 miles    
Events Snow    
T = Trace of Precipitation, MM = Missing Value Source: NWS Daily Summary

Daily Weather History Graph

Daily Weather History Graph

Search for Another Location

Airport or City:

Trip Planner

Search our weather history database for the weather conditions in past years. The results will help you decide how hot, cold, wet, or windy it might be!

Date:

Astronomy

Mar. 21, 2014 Rise Set
Actual Time 7:30 AM MDT 7:44 PM MDT
Civil Twilight 6:58 AM MDT 8:15 PM MDT
Nautical Twilight 6:21 AM MDT 8:52 PM MDT
Astronomical Twilight 5:43 AM MDT 9:30 PM MDT
Moon 12:27 AM MDT (3/21) 10:02 AM MDT (3/21)
Length of Visible Light 13h 16m
Length of Day
12h 13m
Waning Gibbous, 75% of the Moon is Illuminated
Mar 21
Waning Gibbous
Mar 23
Last Quarter
Mar 30
New
Apr 7
First Quarter
Apr 15
Full

Hourly Weather History & Observations

Time (MDT) Temp. Windchill Dew Point Humidity Pressure Visibility Wind Dir Wind Speed Gust Speed Precip Events Conditions
2:34 AM 16.0 °F -0.9 °F 10.0 °F 77% 30.26 in 10.0 mi North 19.6 mph - 0.00 in   Overcast
4:56 AM 12.9 °F -3.4 °F 8.1 °F 81% 30.43 in 4.0 mi North 16.1 mph - 0.00 in Snow Light Snow
7:56 AM 10.9 °F -3.4 °F 7.0 °F 84% 30.49 in 2.5 mi North 11.5 mph - 0.00 in Snow Light Snow
11:56 AM 15.1 °F 3.3 °F 6.1 °F 68% 30.52 in 9.0 mi North 9.2 mph - 0.00 in   Overcast
12:56 PM 15.1 °F 4.2 °F 6.1 °F 68% 30.51 in 10.0 mi NNE 8.1 mph - N/A   Overcast
1:56 PM 16.0 °F 5.3 °F 5.0 °F 62% 30.52 in 10.0 mi North 8.1 mph - N/A   Overcast
2:56 PM 16.0 °F 5.3 °F 6.1 °F 65% 30.51 in 9.0 mi NNE 8.1 mph - N/A   Overcast
3:56 PM 15.1 °F 2.5 °F 7.0 °F 70% 30.52 in 3.0 mi North 10.4 mph - 0.00 in Snow Light Snow
4:36 PM 16.0 °F 2.9 °F 8.1 °F 71% 30.33 in 2.5 mi NNE 11.5 mph - 0.00 in Snow Light Snow
4:47 PM 16.0 °F 5.3 °F 6.1 °F 65% 30.33 in 5.0 mi NNE 8.1 mph - 0.00 in Snow Light Snow
4:56 PM 16.0 °F 4.4 °F 6.1 °F 65% 30.52 in 10.0 mi North 9.2 mph - 0.00 in   Overcast
5:07 PM 16.0 °F 4.4 °F 5.0 °F 62% 30.33 in 10.0 mi North 9.2 mph - N/A   Overcast
5:56 PM 15.1 °F 1.1 °F 6.1 °F 68% 30.53 in 10.0 mi NE 12.7 mph - N/A   Overcast
6:56 PM 12.9 °F -1.6 °F 3.9 °F 67% 30.53 in 10.0 mi NNE 12.7 mph - N/A   Overcast
7:56 PM 10.9 °F -2.6 °F 3.9 °F 73% 30.56 in 10.0 mi ENE 10.4 mph - N/A   Overcast
8:56 PM 10.0 °F -1.9 °F 5.0 °F 80% 30.57 in 10.0 mi NE 8.1 mph - N/A   Overcast
9:56 PM 9.0 °F -2.2 °F 3.0 °F 77% 30.58 in 10.0 mi NE 6.9 mph - N/A   Overcast
10:56 PM 8.1 °F -2.0 °F 3.9 °F 83% 30.58 in 10.0 mi NNE 5.8 mph - N/A   Overcast
11:56 PM 6.1 °F -0.9 °F 3.0 °F 87% 30.59 in 10.0 mi North 3.5 mph - N/A   Partly Cloudy